STPSAT-4 (45043 NORAD) Tracking and Keplerian Element Data

This shows tracking and keplerian element data for the satellite.

Feedback or suggestion? Click here.




ElementValue
Catalog45043
NameSTPSAT-4
Epoch Orbit375
Epoch Day52.90564818
Epoch Year2020
RAAN203.8033
Inclination51.6436
Eccentricity0.0005019
Argument of Perigee298.4475
Mean Anonmoly61.6005
Mean Motion15.49299082
Decay Rate3.781E-05
L11 45043U 98067QY 20052.90564818 .00003781 00000-0 75996-4 0 9995
L22 45043 51.6436 203.8033 0005019 298.4475 61.6005 15.49299082 3758

Live tracking and technical data element details for STPSAT-4 (NORAD 45043). STPSAT-4 can be tracked NOW for your location showing map with azimuth and elevation plus other details from your city location.

Track the satellite on the map from your city or location and see movement details for azimuth, elevation, latitude, longitude, range, height, and movement on the map or in text.







IsCatalogInMostPopularTable: catalog: 45043, numindb: 10
Update: records affected: 1



GetName: 45043 STPSAT-4

Hit Count: updated at: Wed, 26 Feb 2020 17:02:27 GMT